sat.trackr.live / text

‹ back to catalog

STARLINK-4122

NORAD 53272 · 2022-086AG

PAYLOAD ACTIVE UNKNOWN

§ Identity

Operator
Country
US
Launch date
2022-07-24
Launch site
AFETR
Launch vehicle
Mass (kg)
RCS (m²)

Purposes: comms

External: N2YO · Heavens-Above · Gunter

§ Orbital elements

Epoch: 2026-05-25T03:43:35.290848Z

Period
95.44 min
Inclination
53.2149°
Eccentricity
0.0001071
Mean motion
15.08836671 rev/d
Perigee alt
539.0 km
Apogee alt
540.5 km
Semi-major
6,917.9 km
B*
-6.1604e-6
RAAN
200.8525°
Arg perigee
82.7614°
Mean anomaly
277.3500°
Rev number
21,274

§ Raw data

STARLINK-41221 53272U 22086AG  26145.15526957 -.00000386  00000+0 -61604-5 0  99952 53272  53.2149 200.8525 0001071  82.7614 277.3500 15.08836671212749

JSON: /api/v1/satellites/53272 · /tle

For live sub-satellite position, see the globe view (requires WebGL).

§ Visibility from observer

Set your observer location to see the next 7 days of passes ≥ 10°. The values pass through the URL so the page stays shareable.

No JS? Fill the form by hand. The geolocation button needs JavaScript.